This demonstration page uses our WeatherBlox Daily Observations layout. Learn more.

Left ArrowRight Arrow

Hourly Observations for December 10, 2020

Temp ( °F °C ) Dew Point ( °F °C ) Humidity (%) Winds ( mph kmh ) Pressure ( in mb ) Visibility ( mi km ) Precip ( " mm )
12:52 am 00:52 Clear 31 -0.6 27 -2.8 85 85 SE 5 7 29.93 1014 10 16 0.00 0.00
1:52 am 01:52 Clear 34 1.1 29 -1.7 82 82 SE 6 9 29.92 1013 10 16 0.00 0.00
2:52 am 02:52 Clear 31 -0.6 27 -2.8 85 85 Calm 29.92 1013 10 16 0.00 0.00
3:52 am 03:52 Clear 32 0 28 -2.2 85 85 SSE 3 6 29.91 1013 10 16 0.00 0.00
4:52 am 04:52 Clear 31 -0.6 27 -2.8 85 85 Calm 29.90 1012 10 16 0.00 0.00
5:52 am 05:52 Clear 33 0.6 28 -2.2 82 82 S 3 6 29.90 1013 10 16 0.00 0.00
6:52 am 06:52 Clear 30 -1.1 27 -2.8 88 88 S 6 9 29.91 1013 10 16 0.00 0.00
7:52 am 07:52 Mostly Sunny 28 -2.2 25 -3.9 88 88 WNW 5 7 29.91 1013 10 16 0.00 0.00
8:52 am 08:52 Partly Cloudy 35 1.7 30 -1.1 82 82 N 5 7 29.93 1014 10 16 0.00 0.00
9:52 am 09:52 Partly Cloudy 41 5 33 0.6 73 73 SSE 6 9 29.92 1013 10 16 0.00 0.00
10:52 am 10:52 Mostly Cloudy 48 8.9 31 -0.6 52 52 N 17 28 29.93 1013 10 16 0.00 0.00
11:52 am 11:52 Mostly Cloudy 48 8.9 32 0 54 54 NNW 13 20 29.92 1013 10 16 0.00 0.00
12:52 pm 12:52 Cloudy 50 10 33 0.6 52 52 NNW 16 26 29.90 1013 10 16 0.00 0.00
1:52 pm 13:52 Cloudy 51 10.6 33 0.6 50 50 N 17 28 29.89 1012 10 16 0.00 0.00
2:52 pm 14:52 Cloudy 49 9.4 32 0 52 52 N 21 33 29.90 1013 10 16 0.00 0.00
3:52 pm 15:52 Cloudy 46 7.8 32 0 58 58 N 17 28 29.92 1013 10 16 0.00 0.00
4:52 pm 16:52 Cloudy 43 6.1 31 -0.6 63 63 NNW 13 20 29.93 1014 10 16 0.00 0.00
5:52 pm 17:52 Cloudy 40 4.4 30 -1.1 68 68 N 10 17 29.93 1014 10 16 0.00 0.00
6:52 pm 18:52 Cloudy 35 1.7 29 -1.7 78 78 N 9 15 29.96 1014 10 16 0.00 0.00
7:52 pm 19:52 Cloudy 36 2.2 29 -1.7 76 76 N 8 13 29.97 1015 10 16 0.00 0.00
8:52 pm 20:52 Cloudy 37 2.8 29 -1.7 73 73 N 12 19 29.97 1015 10 16 0.00 0.00
9:52 pm 21:52 Cloudy 38 3.3 30 -1.1 73 73 N 14 22 29.98 1015 10 16 0.00 0.00
10:52 pm 22:52 Cloudy 38 3.3 31 -0.6 76 76 N 13 20 29.96 1015 10 16 0.00 0.00
11:52 pm 23:52 Cloudy 38 3.3 32 0 79 79 NNW 8 13 29.98 1015 10 16 0.00 0.00

Powered by AerisWeather